[[{"header":{"parameterUnit":"m.s-1","parameterCategory":1,"la1":30.2992,"la2":30.254,"lo1":-89.0895,"lo2":-89.0443,"dy":0.0025,"dx":0.0025,"nx":19,"ny":19,"refTime":"2026-03-17T09:00:00:Z","depth":0,"parameterNumber":2,"parameterNumberName":"U-component_of_WINDS"},"data":[0,0,0,-0.777,-0.7772,-0.7901,-0.7901,-0.806,-0.8062,0,0,0,0,0,0,0,0,0,0,0,-0.7726,-0.7727,-0.777,-0.7773,-0.7901,-0.7901,-0.806,-0.8062,0,0,0,0,0,0,0,0,0,0,0,-0.7726,-0.7727,-0.7728,-0.7773,-0.7901,-0.7901,-0.806,-0.7965,0,0,0,0,0,0,0,0,0,0,-0.7842,-0.7796,-0.7727,-0.7728,-0.7774,-0.79,-0.7901,-0.7961,-0.7971,-0.7999,0,-0.802,0,-0.8043,-0.8072,-0.8072,0,0,0,-0.7778,-0.7787,-0.7826,-0.7728,-0.7775,-0.79,-0.7844,-0.7967,-0.7978,-0.8013,-0.8023,-0.8029,-0.8046,-0.8073,-0.8073,-0.8213,-0.8214,0,0,-0.7771,-0.7747,-0.7818,-0.7834,-0.7811,-0.784,-0.7848,-0.7974,-0.7984,-0.8023,-0.8033,-0.8049,-0.8074,-0.8075,-0.8213,-0.8214,0,0,0,-0.7747,-0.7742,-0.7778,-0.7827,-0.785,-0.7844,-0.7853,-0.7979,-0.7992,-0.8034,-0.805,-0.8075,-0.8076,-0.8213,-0.8213,-0.8212,0,0,0,-0.7743,-0.7728,-0.7775,-0.7762,-0.7848,-0.7915,-0.7855,-0.7984,-0.7998,-0.805,-0.8075,-0.8078,-0.8212,-0.8213,-0.8211,-0.8216,0,0,0,-0.772,-0.7726,-0.7742,-0.776,-0.7814,-0.7914,-0.7935,-0.7987,-0.8008,-0.8072,-0.8078,-0.8212,-0.8213,-0.821,-0.8214,-0.8247,0,0,0,-0.7689,-0.7739,-0.7741,-0.7803,-0.7813,-0.7911,-0.7934,-0.8009,-0.8064,-0.8075,-0.8212,-0.8213,-0.821,-0.8214,-0.8246,-0.8271,-0.8278,0,0,-0.7739,-0.7744,-0.7782,-0.7788,-0.7879,-0.7893,-0.7985,-0.8058,-0.8087,-0.817,-0.8174,-0.8211,-0.8214,-0.8247,-0.8326,-0.8332,0,0,0,-0.779,-0.7818,-0.7847,-0.7897,-0.7953,-0.8002,-0.8063,-0.8091,-0.8162,-0.8124,-0.8231,-0.8234,-0.8254,-0.8267,-0.8272,-0.8292,-0.8218,-0.8218,-0.8217,-0.7828,-0.786,-0.7927,-0.7975,-0.8023,-0.8086,-0.8129,-0.8177,-0.8197,-0.8221,-0.8247,-0.8291,-0.8306,-0.831,-0.833,-0.8261,-0.8261,-0.8261,-0.8261,-0.7905,-0.795,-0.7974,-0.8046,-0.8081,-0.8144,-0.8207,-0.8218,-0.8283,-0.8274,-0.8294,-0.8283,-0.8315,-0.8334,-0.8262,-0.8262,-0.8262,-0.8262,-0.8262,-0.7936,-0.7963,-0.7994,-0.807,-0.8126,-0.8173,-0.8234,-0.8264,-0.8292,-0.8311,-0.8343,-0.8343,-0.8349,-0.8324,-0.8324,-0.8324,-0.8324,-0.8324,-0.8324,-0.7955,-0.799,-0.8037,-0.81,-0.8137,-0.8189,-0.8252,-0.829,-0.834,-0.8357,-0.8358,-0.8376,-0.8311,-0.8295,-0.8327,-0.8326,-0.8326,-0.8326,-0.8326,-0.8025,-0.8014,-0.8085,-0.8122,-0.82,-0.8254,-0.829,-0.8365,-0.84,-0.843,-0.8444,-0.839,-0.8399,-0.8395,-0.8382,-0.8435,-0.8435,-0.8435,-0.8435,-0.8052,-0.8058,-0.8139,-0.8195,-0.8254,-0.8294,-0.8378,-0.8428,-0.8479,-0.8503,-0.85,-0.8485,-0.8479,-0.8491,-0.8485,-0.8474,-0.8549,-0.8549,-0.8549,-0.8098,-0.8111,-0.8175,-0.8222,-0.8285,-0.8339,-0.8419,-0.8486,-0.8541,-0.8555,-0.8524,-0.8519,-0.8495,-0.8485,-0.85,-0.849,-0.847,0,0]},{"header":{"parameterUnit":"m.s-1","parameterCategory":1,"la1":30.2992,"la2":30.254,"lo1":-89.0895,"lo2":-89.0443,"dy":0.0025,"dx":0.0025,"nx":19,"ny":19,"refTime":"2026-03-17T09:00:00:Z","depth":0,"parameterNumber":3,"parameterNumberName":"V-component_of_WINDS"},"data":[0,0,0,2.5576,2.5577,2.5605,2.5606,2.5652,2.5653,0,0,0,0,0,0,0,0,0,0,0,2.5576,2.5576,2.5576,2.5577,2.5605,2.5606,2.5652,2.5653,0,0,0,0,0,0,0,0,0,0,0,2.5576,2.5576,2.5577,2.5577,2.5605,2.5606,2.5652,2.5626,0,0,0,0,0,0,0,0,0,0,2.5597,2.5605,2.5576,2.5577,2.5577,2.5605,2.5606,2.5625,2.5628,2.5644,0,2.5663,0,2.5659,2.5657,2.5657,0,0,0,2.557,2.5603,2.5603,2.5577,2.5578,2.5605,2.5591,2.5626,2.563,2.5648,2.5663,2.5665,2.5659,2.5657,2.5657,2.5775,2.5775,0,0,2.5569,2.5585,2.5601,2.5606,2.5604,2.559,2.5592,2.5628,2.5645,2.5664,2.5666,2.566,2.5658,2.5658,2.5774,2.5775,0,0,0,2.5569,2.5585,2.5583,2.5604,2.5609,2.5591,2.5593,2.5644,2.5642,2.5666,2.5661,2.5658,2.5659,2.5773,2.5774,2.5831,0,0,0,2.5567,2.5584,2.5583,2.5594,2.5608,2.5627,2.5608,2.5639,2.5643,2.5661,2.5658,2.5659,2.5772,2.5774,2.5827,2.5854,0,0,0,2.5571,2.5585,2.5592,2.5594,2.5608,2.5626,2.5626,2.564,2.564,2.5657,2.5659,2.5771,2.5773,2.5824,2.5849,2.5887,0,0,0,2.558,2.5644,2.5593,2.5662,2.5607,2.5662,2.5626,2.5666,2.5687,2.5658,2.5772,2.5774,2.5823,2.5846,2.5884,2.5921,2.5939,0,0,2.567,2.5655,2.5694,2.565,2.5717,2.5656,2.5731,2.5735,2.5722,2.5757,2.576,2.5828,2.5849,2.5887,2.6036,2.6051,0,0,0,2.5728,2.5756,2.5771,2.5792,2.5796,2.58,2.5791,2.5792,2.5821,2.5744,2.5853,2.5865,2.5886,2.5903,2.5915,2.5931,2.5783,2.5783,2.5783,2.5879,2.5857,2.5919,2.59,2.592,2.5908,2.5922,2.592,2.5894,2.592,2.5929,2.6023,2.6043,2.6052,2.6069,2.5949,2.595,2.595,2.595,2.6006,2.6041,2.6001,2.6047,2.6022,2.606,2.6049,2.6029,2.6058,2.6015,2.6033,2.5985,2.6069,2.6082,2.5954,2.5953,2.5953,2.5952,2.5952,2.61,2.6113,2.6112,2.6137,2.6159,2.6137,2.6165,2.6143,2.6122,2.614,2.6145,2.6144,2.6137,2.6144,2.6145,2.6145,2.6145,2.6145,2.6146,2.6197,2.6195,2.6222,2.623,2.6238,2.6246,2.6232,2.6239,2.624,2.6221,2.6221,2.6189,2.6082,2.6054,2.615,2.615,2.6149,2.6149,2.6148,2.633,2.6296,2.6339,2.6347,2.6351,2.6371,2.6341,2.6356,2.6359,2.6373,2.6337,2.6262,2.6246,2.6236,2.6212,2.6344,2.6344,2.6344,2.6344,2.6407,2.6397,2.6433,2.6446,2.6457,2.6433,2.6478,2.6467,2.645,2.6449,2.6427,2.6394,2.6386,2.6374,2.6361,2.6338,2.6499,2.6499,2.65,2.6486,2.6475,2.6518,2.6501,2.6502,2.6502,2.6542,2.6557,2.6531,2.6505,2.6447,2.644,2.6387,2.6372,2.6344,2.6325,2.6283,0,0]}]]